Tracking 30995 objects as of 5-Jul-2025
HD Live streaming from Space Station
objects crossing your sky now

SL-12 R/B(2)

Track SL-12 R/B(2) now!


NORAD ID: 16676
Int'l Code: 1986-027F
Perigee: 36,375.5 km
Apogee: 36,690.4 km
Inclination: 12.3 °
Period: 1,474.0 minutes
Semi major axis: 42903 km
RCS: 2.3853 m2 (large)
Launch date: April 4, 1986
Source: Commonwealth of Independent States (former USSR) (CIS)
Launch site: TYURATAM MISSILE AND SPACE COMPLEX (TTMTR)

Note: This is a ROCKET BODY
Your satellite tracking list
SATCOM K1 R/B(PAM-D2)
Track 1 satellite(s)




NASA's NSSDC Master Catalog

Two Line Element Set (TLE):
1 16676U 86027F   25186.13644587 -.00000155  00000-0  00000-0 0  9991
2 16676  12.2776 325.0263 0036700 140.4659 227.6227  0.97691490116639
Source of the keplerian elements: AFSPC